SWT5784 LFKB-LFML

Flight info

Callsign SWT5784
Flight time 0h 53m
Altitude 30000
Route SODRI A3 OMARD DCT STP/N0344F180 A3 RUBIT G7 LANKO
Aircraft B738/M-SDE2E3FGHIRWXY/LB1

Departure

Time 2026-04-29 21:04
Airport Bastia-Poretta International airport (LFKB)

Arrival

Time 2026-04-29 21:58
Airport Marseille Provence Airport (LFML)
Time Latitude Longitude Altitude Speed Heading
2026-04-29 20:44 42.54526 9.48301 34 ft 0 kts 283°
2026-04-29 20:55 42.54526 9.48300 34 ft 1 kts 283°
2026-04-29 20:56 42.54532 9.48296 34 ft 1 kts 348°
2026-04-29 20:56 42.54535 9.48308 31 ft 2 kts 78°
2026-04-29 20:56 42.54540 9.48336 33 ft 4 kts 78°
2026-04-29 20:56 42.54550 9.48378 33 ft 5 kts 54°
2026-04-29 20:57 42.54591 9.48379 34 ft 7 kts 346°
2026-04-29 20:57 42.54645 9.48361 34 ft 9 kts 346°
2026-04-29 20:57 42.54708 9.48330 34 ft 10 kts 342°
2026-04-29 20:57 42.54776 9.48301 34 ft 10 kts 343°
2026-04-29 20:58 42.54843 9.48274 34 ft 10 kts 342°
2026-04-29 20:58 42.54906 9.48247 34 ft 10 kts 342°
2026-04-29 20:58 42.54971 9.48235 34 ft 9 kts 358°
2026-04-29 20:58 42.55034 9.48216 33 ft 9 kts 345°
2026-04-29 20:59 42.55094 9.48190 34 ft 9 kts 342°
2026-04-29 20:59 42.55151 9.48165 34 ft 9 kts 342°
2026-04-29 20:59 42.55208 9.48142 34 ft 8 kts 343°
2026-04-29 20:59 42.55269 9.48117 34 ft 11 kts 342°
2026-04-29 21:00 42.55355 9.48080 34 ft 15 kts 343°
2026-04-29 21:00 42.55468 9.48034 34 ft 19 kts 343°
2026-04-29 21:00 42.55600 9.47981 31 ft 20 kts 342°
2026-04-29 21:00 42.55733 9.47923 28 ft 20 kts 343°
2026-04-29 21:01 42.55859 9.47869 26 ft 15 kts 342°
2026-04-29 21:01 42.55943 9.47920 25 ft 15 kts 69°
2026-04-29 21:01 42.55971 9.48049 23 ft 14 kts 73°
2026-04-29 21:01 42.56044 9.48073 23 ft 13 kts 327°
2026-04-29 21:02 42.56122 9.48016 23 ft 13 kts 343°
2026-04-29 21:02 42.56205 9.47980 24 ft 12 kts 336°
2026-04-29 21:02 42.56269 9.47906 21 ft 11 kts 314°
2026-04-29 21:02 42.56324 9.47900 22 ft 10 kts 64°
2026-04-29 21:03 42.56276 9.47950 21 ft 10 kts 163°
2026-04-29 21:03 42.56168 9.47994 24 ft 33 kts 162°
2026-04-29 21:03 42.55704 9.48189 27 ft 103 kts 163°
2026-04-29 21:03 42.54848 9.48532 86 ft 150 kts 165°
2026-04-29 21:04 42.53768 9.48867 578 ft 163 kts 168°
2026-04-29 21:04 42.52704 9.49114 1469 ft 146 kts 171°
2026-04-29 21:04 42.51714 9.49506 2011 ft 160 kts 152°
2026-04-29 21:04 42.50832 9.50636 2255 ft 186 kts 139°
2026-04-29 21:05 42.49798 9.51851 2493 ft 206 kts 143°
2026-04-29 21:05 42.48603 9.53055 2640 ft 227 kts 146°
2026-04-29 21:05 42.47238 9.54298 2857 ft 245 kts 148°
2026-04-29 21:05 42.45748 9.55582 3164 ft 263 kts 148°
2026-04-29 21:06 42.44163 9.56914 3791 ft 269 kts 148°
2026-04-29 21:06 42.42807 9.58626 4467 ft 273 kts 121°
2026-04-29 21:06 42.42216 9.61080 5080 ft 277 kts 90°
2026-04-29 21:06 42.42554 9.63634 5772 ft 279 kts 64°
2026-04-29 21:07 42.43717 9.65706 6517 ft 278 kts 37°
2026-04-29 21:07 42.45456 9.66838 7167 ft 280 kts
2026-04-29 21:07 42.46746 9.66915 7627 ft 280 kts 351°
2026-04-29 21:07 42.49055 9.65404 8591 ft 280 kts 314°
2026-04-29 21:08 42.50220 9.63328 9337 ft 283 kts 301°
2026-04-29 21:08 42.51250 9.61047 10182 ft 281 kts 299°
2026-04-29 21:08 42.52275 9.58714 10635 ft 297 kts 300°
2026-04-29 21:08 42.53371 9.56241 10809 ft 321 kts 300°
2026-04-29 21:09 42.54569 9.53586 11235 ft 333 kts 300°
2026-04-29 21:09 42.55805 9.50868 11876 ft 338 kts 301°
2026-04-29 21:09 42.57033 9.48190 12676 ft 339 kts 301°
2026-04-29 21:09 42.58263 9.45423 13411 ft 344 kts 299°
2026-04-29 21:10 42.59442 9.42556 14122 ft 348 kts 298°
2026-04-29 21:10 42.60602 9.39655 14823 ft 351 kts 298°
2026-04-29 21:10 42.61756 9.36752 15509 ft 355 kts 298°
2026-04-29 21:10 42.62947 9.33765 16211 ft 359 kts 298°
2026-04-29 21:11 42.64146 9.30766 16915 ft 363 kts 298°
2026-04-29 21:11 42.65361 9.27737 17654 ft 366 kts 298°
2026-04-29 21:11 42.66588 9.24680 18360 ft 369 kts 298°
2026-04-29 21:11 42.67808 9.21647 18930 ft 373 kts 298°
2026-04-29 21:12 42.69061 9.18529 19554 ft 375 kts 298°
2026-04-29 21:12 42.70312 9.15415 20174 ft 378 kts 298°
2026-04-29 21:12 42.71583 9.12249 20794 ft 381 kts 298°
2026-04-29 21:12 42.72859 9.09067 21382 ft 384 kts 298°
2026-04-29 21:13 42.74127 9.05901 21924 ft 387 kts 298°
2026-04-29 21:13 42.75423 9.02661 22487 ft 390 kts 298°
2026-04-29 21:13 42.76726 8.99402 23063 ft 393 kts 298°
2026-04-29 21:13 42.78034 8.96125 23617 ft 396 kts 298°
2026-04-29 21:14 42.79339 8.92851 24056 ft 398 kts 298°
2026-04-29 21:14 42.80668 8.89517 24494 ft 401 kts 298°
2026-04-29 21:14 42.82004 8.86157 24940 ft 404 kts 298°
2026-04-29 21:14 42.83346 8.82778 25494 ft 403 kts 298°
2026-04-29 21:15 42.84672 8.79438 26124 ft 400 kts 298°
2026-04-29 21:15 42.85992 8.76107 26742 ft 398 kts 298°
2026-04-29 21:15 42.87310 8.72779 27280 ft 398 kts 298°
2026-04-29 21:15 42.88626 8.69451 27809 ft 398 kts 298°
2026-04-29 21:16 42.89916 8.66185 28360 ft 397 kts 298°
2026-04-29 21:16 42.91223 8.62872 29050 ft 392 kts 298°
2026-04-29 21:16 42.92511 8.59604 29702 ft 390 kts 298°
2026-04-29 21:16 42.93367 8.57429 29998 ft 391 kts 298°
2026-04-29 21:17 42.95097 8.53032 30011 ft 398 kts 298°
2026-04-29 21:17 42.97261 8.47518 30018 ft 392 kts 298°
2026-04-29 21:18 42.99826 8.40975 30046 ft 391 kts 298°
2026-04-29 21:18 43.01645 8.33883 30057 ft 409 kts 276°
2026-04-29 21:19 43.02162 8.25963 30037 ft 425 kts 279°
2026-04-29 21:19 43.03151 8.17903 30046 ft 437 kts 281°
2026-04-29 21:20 43.04242 8.09713 30029 ft 438 kts 281°
2026-04-29 21:20 43.05283 8.01498 30035 ft 437 kts 281°
2026-04-29 21:21 43.06290 7.93317 30033 ft 436 kts 280°
2026-04-29 21:21 43.07283 7.85197 30038 ft 434 kts 280°
2026-04-29 21:22 43.08265 7.77142 30019 ft 416 kts 280°
2026-04-29 21:22 43.08741 7.73301 30025 ft 400 kts 280°
2026-04-29 21:22 43.09201 7.69608 29768 ft 391 kts 280°
2026-04-29 21:22 43.09653 7.65974 29494 ft 383 kts 280°
2026-04-29 21:23 43.10089 7.62447 29205 ft 377 kts 280°
2026-04-29 21:23 43.10523 7.58917 28930 ft 370 kts 280°
2026-04-29 21:23 43.10937 7.55493 28654 ft 366 kts 280°
2026-04-29 21:23 43.11349 7.52038 28367 ft 365 kts 279°
2026-04-29 21:24 43.11754 7.48616 28032 ft 361 kts 279°
2026-04-29 21:24 43.12154 7.45236 27646 ft 358 kts 279°
2026-04-29 21:24 43.12545 7.41925 27285 ft 355 kts 279°
2026-04-29 21:24 43.12937 7.38600 26924 ft 352 kts 279°
2026-04-29 21:25 43.13326 7.35288 26562 ft 350 kts 279°
2026-04-29 21:25 43.13708 7.32040 26205 ft 348 kts 279°
2026-04-29 21:25 43.14093 7.28748 25850 ft 346 kts 279°
2026-04-29 21:25 43.14469 7.25530 25494 ft 344 kts 279°
2026-04-29 21:26 43.14848 7.22286 25132 ft 342 kts 279°
2026-04-29 21:26 43.15221 7.19071 24784 ft 341 kts 279°
2026-04-29 21:26 43.15592 7.15871 24436 ft 339 kts 279°
2026-04-29 21:26 43.15962 7.12677 24084 ft 338 kts 279°
2026-04-29 21:27 43.16324 7.09540 23731 ft 337 kts 279°
2026-04-29 21:27 43.16689 7.06368 23341 ft 336 kts 279°
2026-04-29 21:27 43.17052 7.03212 22944 ft 334 kts 279°
2026-04-29 21:27 43.17412 7.00066 22583 ft 332 kts 279°
2026-04-29 21:28 43.17766 6.96964 22228 ft 330 kts 279°
2026-04-29 21:28 43.18123 6.93837 21878 ft 328 kts 279°
2026-04-29 21:28 43.18472 6.90762 21538 ft 326 kts 279°
2026-04-29 21:28 43.18814 6.87747 21203 ft 324 kts 279°
2026-04-29 21:29 43.19158 6.84707 20866 ft 322 kts 279°
2026-04-29 21:29 43.19501 6.81671 20528 ft 320 kts 279°
2026-04-29 21:29 43.19732 6.78643 20153 ft 319 kts 274°
2026-04-29 21:29 43.19829 6.75603 19815 ft 318 kts 272°
2026-04-29 21:30 43.19889 6.72609 19478 ft 317 kts 272°
2026-04-29 21:30 43.19947 6.69571 19141 ft 316 kts 272°
2026-04-29 21:30 43.20009 6.66565 18808 ft 315 kts 272°
2026-04-29 21:30 43.20077 6.63558 18481 ft 314 kts 272°
2026-04-29 21:31 43.20149 6.60593 18117 ft 314 kts 272°
2026-04-29 21:31 43.20224 6.57598 17749 ft 313 kts 272°
2026-04-29 21:31 43.20299 6.54656 17417 ft 311 kts 272°
2026-04-29 21:31 43.20376 6.51696 17088 ft 309 kts 272°
2026-04-29 21:32 43.20453 6.48750 16759 ft 308 kts 272°
2026-04-29 21:32 43.20529 6.45823 16425 ft 306 kts 272°
2026-04-29 21:32 43.20604 6.42919 16107 ft 304 kts 272°
2026-04-29 21:32 43.20678 6.40056 15789 ft 302 kts 272°
2026-04-29 21:33 43.20751 6.37174 15459 ft 301 kts 272°
2026-04-29 21:33 43.20824 6.34304 15151 ft 299 kts 272°
2026-04-29 21:33 43.20895 6.31484 14824 ft 298 kts 272°
2026-04-29 21:33 43.20965 6.28644 14510 ft 297 kts 272°
2026-04-29 21:34 43.21035 6.25800 14188 ft 297 kts 272°
2026-04-29 21:34 43.21104 6.22982 13873 ft 295 kts 272°
2026-04-29 21:34 43.21172 6.20154 13515 ft 295 kts 272°
2026-04-29 21:34 43.21238 6.17386 13186 ft 293 kts 272°
2026-04-29 21:35 43.21304 6.14600 12857 ft 292 kts 272°
2026-04-29 21:35 43.21369 6.11823 12541 ft 290 kts 272°
2026-04-29 21:35 43.21433 6.09057 12223 ft 289 kts 272°
2026-04-29 21:35 43.21495 6.06330 11909 ft 287 kts 272°
2026-04-29 21:36 43.21557 6.03598 11600 ft 286 kts 272°
2026-04-29 21:36 43.21618 6.00856 11269 ft 286 kts 272°
2026-04-29 21:36 43.21678 5.98162 10947 ft 285 kts 272°
2026-04-29 21:36 43.21738 5.95426 10630 ft 284 kts 272°
2026-04-29 21:37 43.21797 5.92714 10316 ft 284 kts 272°
2026-04-29 21:37 43.21855 5.90061 10172 ft 277 kts 272°
2026-04-29 21:37 43.21910 5.87455 10030 ft 270 kts 272°
2026-04-29 21:37 43.21964 5.84877 9727 ft 269 kts 272°
2026-04-29 21:38 43.22017 5.82307 9442 ft 268 kts 272°
2026-04-29 21:38 43.22070 5.79755 9155 ft 267 kts 272°
2026-04-29 21:38 43.22122 5.77210 8870 ft 266 kts 272°
2026-04-29 21:38 43.22172 5.74707 8588 ft 265 kts 272°
2026-04-29 21:39 43.22223 5.72192 8308 ft 264 kts 272°
2026-04-29 21:39 43.22273 5.69669 8020 ft 264 kts 271°
2026-04-29 21:39 43.22322 5.67148 7741 ft 263 kts 271°
2026-04-29 21:39 43.22370 5.64640 7457 ft 263 kts 271°
2026-04-29 21:40 43.22418 5.62138 7180 ft 263 kts 271°
2026-04-29 21:40 43.22465 5.59615 6865 ft 265 kts 271°
2026-04-29 21:40 43.22512 5.57075 6526 ft 267 kts 271°
2026-04-29 21:40 43.22559 5.54563 6208 ft 268 kts 271°
2026-04-29 21:41 43.22605 5.52000 5905 ft 268 kts 271°
2026-04-29 21:41 43.22651 5.49450 5618 ft 267 kts 271°
2026-04-29 21:41 43.22697 5.46914 5472 ft 261 kts 270°
2026-04-29 21:41 43.22740 5.44455 5347 ft 255 kts 271°
2026-04-29 21:42 43.22782 5.42055 5227 ft 248 kts 270°
2026-04-29 21:42 43.22822 5.39725 5120 ft 240 kts 270°
2026-04-29 21:42 43.22859 5.37499 5019 ft 232 kts 270°
2026-04-29 21:42 43.23044 5.35342 4844 ft 229 kts 291°
2026-04-29 21:43 43.24005 5.33646 4637 ft 228 kts 328°
2026-04-29 21:43 43.25483 5.32911 4435 ft 229 kts 355°
2026-04-29 21:43 43.27085 5.32832 4207 ft 230 kts
2026-04-29 21:43 43.28669 5.32812 3956 ft 230 kts
2026-04-29 21:44 43.30268 5.32796 3711 ft 230 kts
2026-04-29 21:44 43.31871 5.32770 3465 ft 230 kts
2026-04-29 21:44 43.33455 5.32738 3219 ft 230 kts
2026-04-29 21:44 43.35040 5.32676 2914 ft 225 kts 355°
2026-04-29 21:45 43.36449 5.31808 2578 ft 223 kts 316°
2026-04-29 21:45 43.37474 5.30249 2213 ft 219 kts 316°
2026-04-29 21:45 43.38531 5.28811 1846 ft 210 kts 316°
2026-04-29 21:45 43.39522 5.27408 1453 ft 198 kts 315°
2026-04-29 21:46 43.40437 5.26085 1132 ft 185 kts 314°
2026-04-29 21:46 43.41284 5.24841 837 ft 171 kts 317°
2026-04-29 21:46 43.42116 5.23731 479 ft 161 kts 315°
2026-04-29 21:46 43.42874 5.22642 227 ft 163 kts 315°
2026-04-29 21:47 43.43760 5.21390 679 ft 204 kts 315°
2026-04-29 21:47 43.44821 5.19956 1508 ft 220 kts 318°
2026-04-29 21:47 43.45952 5.18532 2421 ft 221 kts 319°
2026-04-29 21:47 43.47043 5.17019 3199 ft 222 kts 302°
2026-04-29 21:48 43.47407 5.14995 3706 ft 224 kts 260°
2026-04-29 21:48 43.46785 5.13025 3884 ft 226 kts 229°
2026-04-29 21:48 43.45659 5.11539 3890 ft 224 kts 212°
2026-04-29 21:48 43.44267 5.10630 3890 ft 221 kts 194°
2026-04-29 21:49 43.42774 5.10073 3903 ft 223 kts 191°
2026-04-29 21:49 43.41266 5.09557 3912 ft 224 kts 191°
2026-04-29 21:49 43.39766 5.09038 3793 ft 228 kts 192°
2026-04-29 21:49 43.38221 5.08495 3533 ft 228 kts 192°
2026-04-29 21:50 43.36697 5.07948 3334 ft 223 kts 192°
2026-04-29 21:50 43.35210 5.07464 3090 ft 214 kts 182°
2026-04-29 21:50 43.33850 5.07848 3008 ft 194 kts 146°
2026-04-29 21:50 43.32968 5.09144 3020 ft 184 kts 124°
2026-04-29 21:51 43.32263 5.10617 3001 ft 185 kts 123°
2026-04-29 21:51 43.31569 5.12102 3004 ft 183 kts 122°
2026-04-29 21:51 43.30233 5.14917 2833 ft 170 kts 123°
2026-04-29 21:52 43.29610 5.16239 2638 ft 164 kts 118°
2026-04-29 21:52 43.29417 5.17730 2411 ft 163 kts 76°
2026-04-29 21:52 43.30082 5.18964 2239 ft 169 kts 33°
2026-04-29 21:52 43.31125 5.19692 2104 ft 169 kts 45°
2026-04-29 21:53 43.31687 5.21053 2032 ft 164 kts 77°
2026-04-29 21:53 43.31942 5.22569 2003 ft 164 kts 79°
2026-04-29 21:53 43.32182 5.24101 2001 ft 164 kts 79°
2026-04-29 21:53 43.32418 5.25637 1994 ft 164 kts 79°
2026-04-29 21:54 43.32653 5.27173 1994 ft 164 kts 79°
2026-04-29 21:54 43.32895 5.28695 1992 ft 164 kts 74°
2026-04-29 21:54 43.33527 5.29956 2019 ft 164 kts 45°
2026-04-29 21:54 43.34403 5.30992 2000 ft 166 kts 43°
2026-04-29 21:55 43.35405 5.31757 1978 ft 171 kts
2026-04-29 21:55 43.36529 5.31261 2033 ft 177 kts 324°
2026-04-29 21:55 43.37466 5.30213 1993 ft 170 kts 322°
2026-04-29 21:55 43.38315 5.29148 1887 ft 162 kts 316°
2026-04-29 21:56 43.39096 5.28043 1590 ft 158 kts 315°
2026-04-29 21:56 43.39842 5.26973 1307 ft 154 kts 315°
2026-04-29 21:56 43.40582 5.25915 1036 ft 153 kts 315°
2026-04-29 21:56 43.41308 5.24876 782 ft 149 kts 315°
2026-04-29 21:57 43.42021 5.23853 495 ft 145 kts 314°
2026-04-29 21:57 43.42700 5.22882 214 ft 137 kts 314°
2026-04-29 21:57 43.43334 5.21984 48 ft 123 kts 313°
2026-04-29 21:57 43.43781 5.21346 42 ft 62 kts 314°
2026-04-29 21:58 43.43973 5.21077 35 ft 19 kts 314°
2026-04-29 21:58 43.44073 5.20963 31 ft 19 kts 351°
2026-04-29 21:58 43.44145 5.21035 30 ft 10 kts 59°
2026-04-29 21:58 43.44179 5.21117 30 ft 10 kts 60°
2026-04-29 21:59 43.44211 5.21196 29 ft 9 kts 61°
2026-04-29 21:59 43.44242 5.21275 29 ft 9 kts 62°
2026-04-29 21:59 43.44269 5.21348 29 ft 9 kts 62°